RH
97 95 92 92 85 90 94 94 92 96 96 95 88 78 84 96 100 100 99 88 80 86 86 77 95 88 71 70 49 54 90 83 79 59 59 67 62 56 48 42 47 46 38 39 48 49 51
99 97 95 93 91 92 85 96 99 92 92 93 96 94 93 80 100 100 98 88 74 82 93 75 86 92 75 54 36 47 63 70 66 60 75 77 68 67 59 55 52 35 39 36 46 51 54
92 89 83 80 77 82 80 81 90 92 90 92 99 99 100 83 100 100 93 89 73 80 87 76 98 96 83 54 39 58 58 63 60 65 68 74 78 71 70 60 56 51 52 44 43 42 51
83 85 81 83 84 79 81 92 87 98 95 91 94 85 94 99 100 100 92 75 84 70 83 76 98 95 65 40 42 57 62 62 60 61 65 78 83 81 85 77 74 64 52 56 36 47 50
81 81 83 82 83 84 87 86 87 90 96 93 90 90 91 88 100 99 86 80 70 83 90 89 98 88 52 52 58 64 62 66 72 67 68 87 93 89 99 100 97 60 52 52 41 43 49
86 92 91 97 91 86 83 91 92 91 97 96 83 74 72 98 100 96 80 78 78 93 91 88 67 78 66 56 61 59 61 64 72 79 78 86 88 94 100 100 74 53 56 41 51 48 55
91 93 93 95 100 98 98 90 92 87 92 99 76 64 99 100 100 90 81 89 70 89 82 68 63 63 56 59 65 70 67 72 76 73 65 62 100 94 96 74 60 82 50 45 47 39 55
98 98 96 89 84 91 97 96 94 78 90 84 90 94 99 100 100 87 76 66 63 64 72 62 70 70 65 65 69 76 72 71 73 73 58 92 97 75 64 63 60 99 68 51 55 54 48
97 96 100 98 90 96 98 92 88 78 82 79 76 90 94 100 99 89 82 72 71 67 65 72 73 73 71 70 70 73 77 88 78 83 80 95 82 93 88 66 68 86 67 50 63 68 61
100 98 99 99 96 97 90 96 96 89 84 85 85 95 100 98 99 94 99 73 72 67 78 55 68 70 76 80 72 74 80 92 96 100 99 100 92 98 92 69 68 70 53 50 62 64 74
99 96 100 98 99 93 93 98 98 91 80 85 91 94 100 100 89 93 84 63 73 65 69 49 63 68 74 78 78 80 85 100 100 100 100 99 93 95 93 71 62 50 50 62 63 63 62
97 96 97 100 98 100 94 94 93 94 77 88 89 90 100 100 91 87 67 73 67 75 55 77 62 62 67 74 76 85 98 99 99 99 96 96 90 91 78 55 65 68 76 71 61 64 82
98 100 100 100 98 97 95 99 96 96 92 96 83 80 100 99 92 86 78 72 89 73 54 66 66 58 53 57 60 72 77 74 87 100 100 100 97 85 81 74 71 71 89 92 79 81 78
99 100 98 95 89 92 98 98 96 93 96 92 79 99 100 99 90 79 79 67 80 52 67 59 58 52 56 58 58 58 68 68 61 78 94 94 97 97 82 77 67 63 55 64 65 60 66
88 75 78 85 88 96 96 99 95 99 98 83 100 100 99 96 91 86 62 90 76 60 55 60 55 48 55 52 60 55 62 70 66 68 70 72 100 88 73 72 69 60 65 51 59 57 54
85 84 89 89 92 89 81 97 98 98 94 88 100 100 100 98 99 80 71 79 80 57 59 54 45 50 50 56 56 57 60 66 72 64 60 66 99 88 79 65 61 54 48 56 62 58 58
97 81 82 80 80 77 91 99 100 97 93 98 99 98 100 100 98 71 81 73 71 68 65 54 50 54 53 56 60 66 70 63 68 64 53 56 60 88 70 74 77 59 53 53 48 46 37
99 99 100 100 98 100 98 99 100 93 88 100 97 100 100 99 83 70 67 74 70 62 73 64 52 51 50 55 63 65 68 72 69 68 57 57 59 86 74 62 60 62 61 49 53 50 55
100 100 100 97 96 96 100 89 85 96 92 97 98 100 100 91 85 69 74 77 72 66 66 62 60 54 48 58 63 68 69 64 68 63 61 50 58 70 62 54 51 62 62 56 53 55 64
100 100 75 61 67 70 69 68 59 79 98 75 91 98 99 96 76 57 79 77 68 71 65 63 57 51 54 60 60 66 66 64 71 64 71 53 58 56 57 67 66 63 59 57 62 77 44
100 95 73 91 97 86 88 77 66 82 81 62 91 94 95 99 77 69 78 71 68 65 65 59 53 52 53 55 60 65 67 59 56 61 57 51 74 72 63 61 65 62 62 58 81 58 55
100 100 97 94 97 93 87 89 86 78 71 76 96 81 78 67 66 72 79 73 58 70 65 59 55 54 50 52 54 55 61 58 61 49 56 53 74 65 64 51 53 56 54 56 57 60 58
100 100 100 88 89 95 94 91 87 84 83 86 76 76 65 70 66 76 65 70 63 64 70 65 52 52 58 62 61 66 64 62 59 56 58 57 59 60 70 55 46 48 50 51 54 54 55
91 100 100 100 98 98 92 90 87 81 81 57 66 64 63 74 66 63 68 71 67 66 64 70 62 51 63 60 56 55 54 53 51 55 60 56 60 61 60 42 47 46 43 44 51 58 55
73 90 99 100 100 96 91 84 77 54 49 54 60 66 70 69 62 66 74 74 76 77 73 73 81 72 59 57 53 55 52 51 56 58 55 51 52 59 50 44 46 50 49 47 46 56 64
76 76 90 98 100 100 91 86 71 52 47 54 64 69 72 70 70 84 77 76 66 69 68 83 81 69 62 52 48 52 46 57 51 58 55 54 50 45 62 49 32 42 52 53 42 48 67
85 86 80 90 94 100 98 89 68 52 50 48 52 59 66 77 84 85 75 70 78 70 69 77 74 68 60 53 56 56 48 58 54 56 61 62 62 59 56 57 44 41 50 54 54 40 68
91 82 85 84 89 99 98 90 81 64 62 54 51 58 58 82 86 78 76 80 79 74 61 77 63 63 60 58 57 57 54 55 60 57 59 53 56 59 67 67 51 52 56 51 52 72 63
88 78 72 76 84 92 100 95 89 80 72 69 56 51 63 63 86 84 82 78 73 70 74 77 73 73 68 60 58 58 55 59 54 46 59 56 47 45 51 41 52 63 56 73 66 56 71
Wind_Speed
23 23 24 22 22 20 21 22 24 22 23 23 21 20 21 18 22 20 13 6 6 11 9 8 9 8 6 4 8 10 10 8 6 6 4 4 6 5 8 6 8 17 20 20 15 19 24
24 23 24 25 23 23 24 23 22 26 24 23 22 17 17 19 23 22 11 2 5 7 10 7 9 7 5 8 7 11 10 8 5 2 4 5 4 5 9 12 12 11 18 25 18 16 16
22 24 25 22 23 23 22 23 24 24 24 24 23 15 8 13 26 18 4 3 5 7 11 9 9 7 8 12 7 11 10 8 7 4 6 8 7 9 2 9 18 21 18 15 18 22 15
25 27 26 24 24 22 22 21 22 22 24 24 20 17 10 13 21 14 8 4 4 4 2 8 10 7 8 6 11 11 10 9 9 7 6 6 7 11 9 10 9 13 17 17 17 16 15
28 27 26 25 24 22 20 21 23 22 23 23 21 13 11 13 26 19 8 3 2 5 3 8 8 6 6 6 9 7 8 9 8 9 8 6 6 7 5 7 7 12 12 19 16 19 12
29 28 27 25 25 24 24 21 22 23 20 22 21 13 15 14 25 14 7 10 8 6 7 8 9 4 7 5 5 6 8 10 9 6 6 7 5 4 4 6 8 10 17 16 17 20 17
30 30 27 28 26 24 23 22 21 21 20 20 19 7 13 21 24 13 13 14 8 2 10 8 4 3 4 4 7 7 7 5 6 6 9 6 5 10 11 16 6 2 12 14 15 19 17
33 32 31 30 29 27 26 23 23 21 18 20 17 6 5 20 14 13 13 10 10 2 4 16 7 11 7 6 4 7 6 4 5 9 8 5 10 13 13 14 13 2 13 15 9 19 11
35 33 32 30 32 28 24 23 24 17 17 15 18 3 8 26 17 13 8 10 8 5 3 5 7 6 1 5 4 4 6 2 6 9 12 11 5 9 8 7 8 8 12 12 11 14 5
35 34 34 32 32 26 20 22 22 17 17 11 14 7 21 20 12 10 8 12 7 6 1 5 3 2 2 4 3 4 4 5 3 5 5 7 5 6 8 11 9 9 15 10 16 15 5
37 37 34 37 30 21 24 22 17 15 10 8 9 7 19 21 7 14 6 17 9 4 3 4 3 2 3 3 2 3 6 7 4 2 3 2 3 6 5 7 13 3 14 16 19 10 7
39 39 40 33 21 23 23 18 14 11 8 9 4 11 16 21 11 10 15 17 11 2 2 3 3 2 3 3 1 2 4 8 5 1 1 2 1 3 3 7 15 7 8 3 1 3 5
41 35 27 28 22 22 18 13 15 8 5 4 2 5 17 21 13 14 20 17 3 3 1 4 2 3 3 3 2 2 4 4 5 2 3 2 2 2 2 6 8 7 11 3 3 3 4
36 33 26 24 21 15 10 8 3 3 5 3 4 1 31 20 18 20 21 2 3 2 3 2 2 2 4 3 1 3 4 6 6 4 2 3 3 3 1 2 3 4 2 2 5 4 4
34 30 25 19 14 11 8 5 5 8 4 8 6 21 22 17 21 23 11 2 2 2 4 7 3 3 2 2 2 4 5 7 6 9 3 2 4 6 7 4 2 1 3 2 5 3 5
32 28 25 21 17 14 12 10 11 6 10 14 17 27 17 21 20 15 2 2 1 1 2 1 1 2 2 3 1 3 6 5 7 6 4 3 4 6 6 5 3 5 1 1 1 4 5
32 29 24 22 19 15 13 11 6 12 23 14 25 9 13 19 16 5 1 1 2 2 2 2 2 4 2 1 3 3 4 3 6 7 5 3 3 4 3 7 8 4 2 4 1 3 4
35 35 33 29 22 19 17 7 7 15 20 30 9 3 18 21 4 1 1 2 1 2 1 1 2 3 2 1 3 2 3 3 11 5 4 4 3 4 4 2 4 3 5 3 2 4 4
56 52 42 22 7 2 1 16 19 19 34 27 7 9 17 8 2 4 2 1 2 2 1 1 2 1 1 2 1 1 2 4 8 6 4 3 3 2 4 4 2 5 6 4 2 1 3
51 46 37 33 31 33 30 32 35 43 32 22 8 3 5 3 2 4 2 2 3 1 1 1 2 1 2 2 4 3 1 3 6 4 7 1 4 5 3 4 2 2 7 9 5 3 7
49 40 37 37 38 38 42 42 39 32 30 14 5 3 6 4 6 5 2 2 4 2 2 3 2 3 2 2 1 2 1 2 1 6 3 2 4 4 7 6 3 6 7 8 5 3 5
40 34 30 28 28 32 35 35 38 35 22 6 5 5 5 5 10 4 3 4 7 2 1 1 3 3 4 3 3 1 1 0 2 4 3 2 4 2 3 5 4 6 4 3 5 3 5
33 29 25 18 18 26 29 29 27 24 13 5 8 14 7 9 8 5 4 4 6 4 2 3 4 4 8 4 5 7 7 8 5 2 3 2 2 1 2 5 1 4 5 5 3 5 3
19 22 15 13 14 19 18 18 14 8 5 7 18 12 5 5 8 6 4 1 7 1 3 2 3 2 5 16 13 8 9 10 11 11 6 3 3 2 2 1 1 3 3 1 6 5 5
12 11 9 9 17 15 13 14 14 12 12 10 8 5 5 6 11 4 4 4 7 7 4 3 5 5 13 2 1 0 0 1 6 7 9 5 2 3 1 1 1 1 2 3 2 3 3
11 8 6 9 15 15 13 9 9 13 15 10 9 7 7 13 8 3 4 5 4 3 2 3 7 10 1 2 1 1 1 2 1 1 2 2 5 0 1 1 3 3 3 1 1 3 5
14 11 7 4 13 21 14 9 10 10 13 15 12 6 5 7 4 6 2 4 4 4 3 3 2 1 2 1 1 1 0 2 2 1 1 0 1 1 2 2 3 4 4 4 3 3 7
13 13 7 3 12 21 20 14 10 7 5 10 13 9 3 6 7 5 5 4 5 3 4 6 4 2 1 2 2 1 2 1 2 1 2 3 3 3 2 3 3 9 5 5 5 7 5
12 13 9 3 8 13 24 18 11 6 4 3 8 8 9 6 8 10 8 7 6 5 6 10 1 2 2 2 1 2 2 1 2 2 2 3 2 2 5 1 3 9 2 6 7 5 4
Wind_Direction
323 322 323 323 322 321 320 324 322 327 331 332 311 283 287 295 279 253 256 275 288 302 291 262 270 280 292 255 245 198 183 202 221 254 251 224 230 244 249 250 257 245 250 252 256 254 261
320 318 316 314 316 316 319 323 322 324 326 330 326 314 290 286 257 242 245 260 300 300 272 240 261 266 250 249 228 207 205 215 233 252 216 216 248 255 278 265 254 262 256 255 246 253 269
314 311 315 321 317 312 312 319 320 322 323 326 327 317 292 302 246 229 199 220 276 276 256 207 240 253 255 250 216 203 213 222 231 250 231 231 234 219 278 278 261 250 254 257 237 237 240
317 312 311 309 310 310 308 313 317 319 321 323 326 328 295 320 225 221 194 200 261 291 175 190 230 252 258 239 224 216 229 245 238 262 246 252 250 245 241 264 277 240 233 241 237 217 215
309 309 310 310 308 306 308 309 313 317 319 319 323 326 281 267 222 214 208 112 176 147 181 209 225 231 265 235 229 230 244 243 243 259 267 250 206 223 233 230 229 226 223 220 232 202 182
314 311 311 310 311 307 307 305 306 307 312 313 321 309 310 219 207 194 145 123 140 173 205 218 226 231 234 216 214 251 250 250 246 250 270 237 239 237 203 196 224 209 222 211 219 180 192
312 311 308 307 307 304 304 302 295 301 309 311 312 300 33 198 199 176 133 128 124 167 208 208 199 256 234 235 282 251 231 230 217 220 242 244 218 239 222 223 260 56 234 208 200 172 189
313 314 313 311 309 303 300 299 291 298 297 303 304 302 348 220 178 158 147 158 157 174 225 233 234 250 258 278 247 213 214 234 226 247 235 211 251 269 261 239 222 195 230 206 165 161 183
313 313 312 309 309 303 297 295 296 295 289 296 300 307 208 207 186 164 170 153 150 175 259 217 221 255 240 223 252 217 187 220 243 252 237 235 235 328 241 206 194 235 236 182 149 153 168
313 313 310 309 304 300 296 292 288 289 301 282 299 28 160 172 168 181 204 168 151 174 284 171 208 234 201 218 219 229 219 224 209 268 254 243 255 207 166 180 196 216 210 197 160 160 119
315 314 313 310 306 297 292 290 278 282 306 264 276 219 190 195 215 173 132 159 159 145 217 124 156 216 242 244 329 242 223 199 231 229 262 81 127 145 184 210 194 178 171 192 173 136 123
317 312 308 311 304 299 293 282 281 265 284 277 216 193 196 204 181 145 136 151 140 183 227 169 142 201 221 166 204 282 250 222 197 187 114 48 321 239 280 182 190 281 154 199 83 81 58
318 320 321 316 313 304 291 278 272 261 255 283 157 216 226 209 184 143 145 142 139 228 272 157 162 211 103 19 4 253 286 322 27 240 39 289 89 251 299 180 191 246 161 115 90 74 79
335 329 324 319 315 318 302 284 302 181 250 211 202 116 181 180 156 146 152 120 211 94 199 135 174 160 74 12 199 342 293 5 57 52 40 69 114 11 306 71 176 138 332 358 116 118 114
334 335 336 334 327 320 320 275 246 212 239 178 103 160 160 150 150 155 161 193 345 210 151 155 166 98 70 46 310 332 27 7 360 5 30 78 64 330 30 348 313 181 48 318 104 86 100
344 343 337 332 322 309 301 273 270 208 173 154 136 152 134 152 154 151 170 355 334 247 142 146 108 346 104 24 331 14 15 6 341 6 311 61 110 14 320 311 90 32 359 202 23 111 95
347 333 318 308 294 284 277 294 272 115 151 149 135 98 136 149 143 151 173 358 312 250 321 351 97 111 87 71 32 46 22 356 351 342 12 3 357 65 265 11 4 15 30 39 74 359 129
333 328 317 308 297 294 296 280 189 162 158 147 107 86 153 140 112 169 171 335 291 166 277 18 71 84 83 75 59 73 55 358 345 319 24 10 75 84 71 318 291 339 18 352 315 91 40
352 356 356 344 337 38 66 165 159 175 164 142 81 87 152 134 123 178 316 272 268 169 255 76 93 16 32 76 81 44 345 355 5 22 11 354 32 114 128 166 136 25 5 12 36 45 35
17 25 39 64 87 93 106 134 144 151 165 145 103 109 128 179 83 187 224 177 145 88 113 61 95 151 124 67 37 112 90 333 350 25 34 1 45 1 66 62 19 33 13 7 18 39 92
31 42 63 77 86 102 112 126 140 142 143 151 83 116 162 177 175 187 274 191 163 132 52 27 101 74 80 105 91 78 43 334 7 13 54 33 85 63 50 20 33 56 47 35 59 59 92
46 78 70 80 91 107 117 129 136 142 154 141 116 144 132 151 157 180 233 194 174 119 341 80 130 74 36 63 7 56 134 49 6 7 53 34 118 145 92 50 64 75 52 58 62 75 92
39 67 110 85 92 117 125 134 143 152 158 116 115 130 123 144 161 183 182 158 181 155 55 26 132 101 68 47 71 70 76 71 53 17 58 44 115 1 69 1 30 109 29 32 80 55 5
33 47 93 128 129 134 130 128 118 113 94 136 138 138 122 152 173 192 157 203 152 336 132 47 45 78 128 109 93 83 69 70 55 45 25 96 87 20 93 242 126 77 337 344 98 63 68
355 16 59 115 166 140 133 117 112 116 78 145 148 133 121 127 176 171 177 144 112 78 70 67 24 126 150 39 114 121 345 194 39 32 25 21 88 83 342 36 343 126 157 158 230 145 106
7 332 347 193 167 175 181 142 132 100 76 83 99 118 111 130 198 152 157 164 130 106 94 54 96 133 103 51 59 336 352 358 359 88 52 44 58 315 150 189 224 100 143 128 298 252 155
3 349 321 275 206 203 189 189 165 116 81 60 84 112 126 108 148 156 159 154 127 100 97 128 151 149 38 85 48 299 1 336 290 269 170 144 23 232 174 256 266 166 157 158 230 108 168
4 339 313 326 194 202 200 202 201 179 88 56 52 55 131 108 129 164 151 144 141 155 157 152 141 188 144 194 229 160 259 132 263 275 235 224 194 195 168 228 271 156 135 208 118 146 174
6 342 325 170 211 207 210 208 197 193 203 17 34 66 98 110 133 127 130 139 152 154 137 166 89 139 153 122 172 142 191 195 293 269 200 234 246 309 233 295 86 180 235 156 153 170 198